Terminal Aerodrome Forecast
Issued by NWS Boston, MA

Home | Current Version | Previous Version | Text Only | Print | Product List | Glossary On
Versions: 1 2 3 4 5 6 7 8 9 10 11 12 13 14 15 16 17 18 19 20 21 22 23 24 25 26 27 28 29 30 31 32 33 34 35 36 37 38 39 40 41 42 43 44 45 46 47 48 49 50
000
FTUS41 KBOX 301120
TAFBDL
TAF
KBDL 301120Z 3012/3118 00000KT P6SM BKN070
     FM302200 25005KT P6SM SCT250
     FM310500 VRB03KT P6SM SCT050
     FM311200 VRB03KT P6SM BKN070
     FM311600 21007KT P6SM BKN080=

USA.gov is the U.S. government's official web portal to all federal, state and local government web resources and services.